Regional Weather Roundup
Issued by NWS

Home | Current Version | Previous Version | Text Only | Print | Product List | Glossary On
Versions: 1 2 3 4 5 6 7 8 9 10 11 12 13 14 15 16 17 18 19 20 21 22 23 24 25 26 27 28 29 30 31 32 33 34 35 36 37 38 39 40 41 42 43 44 45 46 47 48 49 50
000
ASUS46 KLOX 230111
RWRCA

SOUTHERN CALIFORNIA WEATHER ROUNDUP
NATIONAL WEATHER SERVICE OXNARD CALIFORNIA
600 PM PDT FRI MAY 22 2015

NOTE: "FAIR" INDICATES FEW OR NO CLOUDS BELOW 12,000 FEET WITH NO
SIGNIFICANT WEATHER AND/OR OBSTRUCTIONS TO VISIBILITY.

  -  STATIONS PRECEEDED BY AN ASTERISK (*) ARE NOT NWS OR FAA
     STATIONS AND ARE NOT SUBJECT TO NWS AND FAA QUALITY CONTROL.

CAZ041-042-087-230200-
LA AND ORANGE COUNTY COASTAL AREAS


CITY           SKY/WX    TMP DP  RH WIND       PRES   REMARKS
L.A. DOWNTOWN  CLOUDY    66  50  56 VRB5      30.01S
L.A. AIRPORT   PTSUNNY   62  55  77 SW13      30.03R
LONG BEACH     PTSUNNY   65  51  60 SW10      30.02R

CITY           SKY/WX    TMP DP  RH WIND       PRES   REMARKS
FULLERTON      CLOUDY    65  49  56 S6        30.01R
HAWTHORNE      MOSUNNY   65  52  62 W13       30.02S
*LOS ALAMITOS  PTSUNNY   64  54  69 SW13      30.02S
*REDONDO BEACH   N/A     66  55  67 W1        30.03R
SANTA ANA      PTSUNNY   64  51  62 W8        30.03R
STA MONICA APT PTSUNNY   64  53  67 SW10      30.02S
*STA MON PIER    N/A     61  56  84 SW8       30.02R
TORRANCE       MOSUNNY   66  55  68 W8        30.03R
*UCLA            N/A     61  52  72 SW7       29.99S

$$

CAZ547-548-048-230200-
LA COUNTY VALLEYS AND INLAND EMPIRE


CITY           SKY/WX    TMP DP  RH WIND       PRES   REMARKS
BURBANK        CLOUDY    63  47  55 S6        30.00S
VAN NUYS       CLOUDY    64  46  52 S8        30.00S

CITY           SKY/WX    TMP DP  RH WIND       PRES   REMARKS
CORONA AIRPORT MOCLDY    63  49  60 W6        30.02S
*CHATSWORTH      N/A     63  49  61 CALM      30.00S
CHINO          CLOUDY    64  48  56 W7        30.03S
MARCH AFB      CLOUDY    57  49  72 N5        30.03S
*NORTHRIDGE      N/A     63  46  55 SE2         N/A
ONTARIO        CLOUDY    60  48  64 W6        30.02S
*PASADENA        N/A     63  52  67 E1          N/A
RIVERSIDE      CLOUDY    62  48  60 W5        30.02S
SAN BERNARDINO CLOUDY    57  46  67 CALM      30.03S
*WHITEMAN AP   NOT AVBL
*WOODLAND HILL   N/A     63  46  55 SE6         N/A

$$

CAZ054-055-230200-
LA AND SAN BERNARDINO COUNTY MOUNTAINS


CITY           SKY/WX    TMP DP  RH WIND       PRES   REMARKS
*BIG BEAR AIRP CLEAR     41  34  75 W12G17    30.03F WCI  34
SANDBERG       CLOUDY    53  45  74 S9        30.03S

$$

CAZ028-029-059-060-099-230200-
ANTELOPE VALLEY AND SURROUNDING AREAS


CITY           SKY/WX    TMP DP  RH WIND       PRES   REMARKS
LANCASTER      MOSUNNY   61  44  53 SW23      29.97R
PALMDALE       MOSUNNY   60  44  55 SW20G28   29.98R

CITY           SKY/WX    TMP DP  RH WIND       PRES   REMARKS
29 PALMS       MOSUNNY   71  37  28 W20       29.94R
BARSTOW/DAGGET PTSUNNY   70  40  33 SW29G35   29.88R
BISHOP         CLOUDY    66  39  37 W13       29.88R
CHINA LAKE     MOSUNNY   73  39  29 W12       29.84S
EDWARDS AFB    PTSUNNY   66  41  40 W24       29.91R
MOJAVE         FAIR      61  41  48 W30G41    29.94R
NEEDLES        PTSUNNY   74  39  28 SW13      29.84S
VICTORVILLE    PTSUNNY   63  39  42 W18       29.96S

$$

CAZ039-040-230200-
VENTURA AND SANTA BARBARA COUNTY COAST


CITY           SKY/WX    TMP DP  RH WIND       PRES   REMARKS
CAMARILLO      MOSUNNY   65  52  62 W15       30.01R
OXNARD AIRPORT PTSUNNY   64  53  67 W15       30.01S
*POINT MUGU    MOSUNNY   68  54  60 W14       30.03R
SBA APT/GOLETA MOSUNNY   64  53  67 W20G29    29.96S
*SANTA BARBARA   N/A     70  51  51 CALM      30.05S
*VENTURA         N/A     67  52  58 SW13      29.62S

$$

CAZ044-045-230200-
VENTURA COUNTY VALLEYS


CITY           SKY/WX    TMP DP  RH WIND       PRES   REMARKS
*SIMI VALLEY     N/A     61  50  66 W2        29.98R
*OJAI            N/A     65  51  58 SW1       29.94S
*FILLMORE        N/A     66  53  63 CALM      29.89S

$$

CAZ053-230200-
VENTURA COUNTY MOUNTAINS


CITY           SKY/WX    TMP DP  RH WIND       PRES   REMARKS

$$

CAZ034-035-036-230200-
CENTRAL COAST AND SANTA YNEZ VALLEY


CITY           SKY/WX    TMP DP  RH WIND       PRES   REMARKS
SAN LUIS OBISP MOSUNNY   63  51  65 NW18      30.03R
SANTA MARIA    MOSUNNY   65  53  65 NW20G26   30.03R

CITY           SKY/WX    TMP DP  RH WIND       PRES   REMARKS
*CAL POLY SLO    N/A     66  54  63 W7          N/A
*PISMO BEACH     N/A     59  56  87 W13       30.03R
*SANTA YNEZ    FAIR      68  46  45 NW13      30.00S

$$

CAZ037-038-051-230200-
SAN LUIS OBISPO COUNTY INTERIOR AND CUYAMA VALLEY


CITY           SKY/WX    TMP DP  RH WIND       PRES   REMARKS
*CUYAMA          N/A     67  46  47 W9        29.93S
PASO ROBLES    SUNNY     67  46  47 S18       29.97R

$$

CAZ032-033-061-230200-
SOUTHERN DESERTS


CITY           SKY/WX    TMP DP  RH WIND       PRES   REMARKS
BLYTHE         MOSUNNY   78  42  27 SW21G29   29.84R
IMPERIAL       SUNNY     74  44  34 W22G33    29.89R
PALM SPRINGS   MOSUNNY   75  43  31 NW20G30   29.88S
THERMAL        PTSUNNY   76  43  30 N20       29.84S HAZE

$$

ELSEWHERE ACROSS THE WESTERN UNITED STATES AND MEXICO


CITY           SKY/WX    TMP DP  RH WIND       PRES   REMARKS
DENVER, CO     PTSUNNY   54  45  71 NE10      29.99S
GRAND CANYON,  CLOUDY    40  37  89 NW6       30.02
HONOLULU, HI   PTSUNNY   81  64  57 W15       29.95S
KAHULUI, MAUI  CLOUDY    81  68  65 N12       29.96
LAKE TAHOE, CA CLOUDY    51  41  68 S9        30.03R
LAS VEGAS, NV  PTSUNNY   69  41  36 NW15G23   29.80S
MAMMOTH LAKES, FAIR      52  36  54 NW8       30.01S
MEXICO CITY, M TSTM      59  52  77 E5        30.40
PHOENIX, AZ    MOSUNNY   78  34  20 W13G26    29.84S
PORTLAND, OR   CLOUDY    59  53  80 CALM      30.05S
RENO, NV       CLOUDY    62  41  46 W15G26    29.94R
SALT LAKE CITY CLOUDY    62  39  42 E7        29.86S
SAN DIEGO, CA  PTSUNNY   64  52  63 W9        30.06S
SAN FRANCISCO, CLOUDY    60  49  66 W18G24    30.05R
SAN JOSE, CA   PTSUNNY   63  50  62 NW20G25   30.02R
SEATTLE, WA    PTSUNNY   60  50  69 S6        30.03R
TIJUANA, MEX   PTSUNNY   63  48  59 SW7       30.08R

$$

STATION/POSITION TIME  TEMP    WIND        PRES    VSBY  WAVE
                       AIR SEA DIR/SP/G                  HT/PER
                 (UTC) (F)     (DEG/KT/KT) (MB)    (MI)  (FT/S)
POINT ARGUELLO B NOT AVBL
WEST SANTA BARBA 0050   59 58  310/ 14/ 16 1016.5R         4/12
POINT CONCEPTION NOT AVBL
EAST SANTA BARBA 0000   59 58  260/ 21/ 25 1015.8R
SANTA MONICA BAY 0050   61 63  270/ 14/ 16 1016.6S         4/ 5


USA.gov is the U.S. government's official web portal to all federal, state and local government web resources and services.